"2009-03-17 00:00:30",717460,13.29,309.6,1.268,0.532,14.99,106.6882,16.4,17.38,10.04,0,110.6,13.27,17.21,271.6
"2009-03-17 00:01:00",717461,12.93,305.5,1.362,0.38,15.07,106.6889,16.4,17.39,10.07,0,110.6,13.27,17.21,267.5
"2009-03-17 00:01:30",717462,13.07,310.6,1.743,0.351,15.01,106.6892,16.4,17.38,10.11,0,110.6,13.27,17.21,272.6
"2009-03-17 00:02:00",717463,12.47,309.1,1.912,0.285,15.04,106.6886,16.4,17.36,10.08,0,110.6,13.27,17.21,271.1
"2009-03-17 00:02:30",717464,13.25,310.2,1.182,0.465,14.99,106.6886,16.4,17.35,10.08,0,110.6,13.27,17.21,272.2
"2009-03-17 00:03:00",717465,12.22,308.3,2.341,0.497,15.07,106.6878,16.39,17.36,10.11,0,110.6,13.27,17.20,270.3
"2009-03-17 00:03:30",717466,12.77,308.5,2.255,0.866,15.05,106.6864,16.39,17.36,10.14,0,110.6,13.27,17.20,270.5
"2009-03-17 00:04:00",717467,13.74,304.5,2.391,0.475,15.08,106.6852,16.39,17.36,10.18,0,110.6,13.27,17.20,266.5
"2009-03-17 00:04:30",717468,13.39,306.3,3.417,0.754,15.04,106.6807,16.38,17.36,10.17,0,110.6,13.27,17.19,268.3
"2009-03-17 00:05:00",717469,14.03,308.9,1.344,0.204,14.95,106.6771,16.37,17.34,10.14,0,110.6,13.27,17.18,270.9
"2009-03-17 00:05:30",717470,14.15,309.4,0.737,0.191,14.98,106.6768,16.37,17.36,10.15,0,110.6,13.26,17.18,271.4
"2009-03-17 00:06:00",717471,13.9,310.6,1.06,0.298,15.09,106.6681,16.34,17.33,10.14,0,110.6,13.27,17.15,272.6
"2009-03-17 00:06:30",717472,13.9,308.4,1.773,0.423,15.11,106.6605,16.32,17.34,10.17,0,110.6,13.27,17.13,270.4
"2009-03-17 00:07:00",717473,13.57,310.2,2.551,0.512,15.02,106.6557,16.31,17.34,10.17,0,110.6,13.27,17.12,272.2
"2009-03-17 00:07:30",717474,14.14,312.2,2.105,1.083,15.07,106.6554,16.31,17.33,10.17,0,110.6,13.27,17.12,274.2
"2009-03-17 00:08:00",717475,13.73,311.3,2.365,0.282,15.06,106.6554,16.31,17.32,10.17,0,110.6,13.27,17.12,273.3
"2009-03-17 00:08:30",717476,13.83,310.4,1.172,0.651,15.12,106.6554,16.31,17.31,10.18,0,110.6,13.27,17.12,272.4
"2009-03-17 00:09:00",717477,13.35,310.1,0.737,0.157,15.05,106.6554,16.31,17.33,10.19,0,110.6,13.27,17.12,272.1
"2009-03-17 00:09:30",717478,13.55,310.1,1.169,0.323,15.02,106.6554,16.31,17.31,10.2,0,110.6,13.27,17.12,272.1
"2009-03-17 00:10:00",717479,12.97,307.9,1.914,0.272,15.12,106.6554,16.31,17.31,10.23,0,110.6,13.27,17.12,269.9
"2009-03-17 00:10:30",717480,12.37,308.5,1.491,0.493,15.11,106.6554,16.31,17.3,10.22,0,110.6,13.27,17.12,270.5
"2009-03-17 00:11:00",717481,12.93,306.8,3.096,0.397,15.13,106.6554,16.31,17.3,10.2,0,110.6,13.27,17.12,268.8
"2009-03-17 00:11:30",717482,12.6,308.1,3.336,0.755,15.1,106.6554,16.31,17.3,10.21,0,110.6,13.27,17.12,270.1
"2009-03-17 00:12:00",717483,13.59,308.1,1.006,0.284,15.06,106.6554,16.31,17.3,10.17,0,110.6,13.27,17.12,270.1
"2009-03-17 00:12:30",717484,12.62,305.2,3.139,0.666,15.18,106.6554,16.31,17.3,10.22,0,110.6,13.27,17.12,267.2
"2009-03-17 00:13:00",717485,12.38,307,1.828,0.464,15.07,106.6554,16.31,17.29,10.24,0,110.6,13.27,17.12,269.0
"2009-03-17 00:13:30",717486,12.16,308.9,2.614,0.36,15.08,106.6551,16.31,17.29,10.24,0,110.6,13.27,17.12,270.9
"2009-03-17 00:14:00",717487,12.03,305.3,1.753,0.187,15.12,106.6548,16.31,17.3,10.31,0,110.6,13.27,17.12,267.3
"2009-03-17 00:14:30",717488,12.41,309.9,0.724,0.289,15.05,106.6551,16.31,17.3,10.32,0,110.6,13.27,17.12,271.9
"2009-03-17 00:15:00",717489,12.45,307.3,1.266,0.313,15.12,106.6548,16.31,17.29,10.32,0,110.6,13.27,17.12,269.3
"2009-03-17 00:15:30",717490,12.06,305.6,1.467,0.219,15.12,106.6546,16.31,17.27,10.35,0,110.6,13.28,17.12,267.6
"2009-03-17 00:16:00",717491,11.67,304.6,1.812,0.373,15.16,106.654,16.31,17.28,10.36,0,110.6,13.28,17.12,266.6
"2009-03-17 00:16:30",717492,11.67,303.7,1.461,0.328,15.15,106.6546,16.31,17.29,10.37,0,110.6,13.28,17.12,265.7
"2009-03-17 00:17:00",717493,12,304.5,0.995,0.17,15.13,106.6546,16.31,17.31,10.36,0,110.6,13.28,17.12,266.5
"2009-03-17 00:17:30",717494,12.52,305.1,1.858,0.321,15.09,106.6537,16.31,17.28,10.41,0,110.6,13.28,17.12,267.1
"2009-03-17 00:18:00",717495,12.4,305.1,1.383,0.328,15.14,106.6532,16.31,17.29,10.43,0,110.6,13.28,17.12,267.1
"2009-03-17 00:18:30",717496,11.91,304.4,0.981,0.091,15.11,106.6532,16.31,17.28,10.43,0,110.6,13.28,17.12,266.4
"2009-03-17 00:19:00",717497,12.47,305,1.67,0.437,15.09,106.6543,16.31,17.28,10.42,0,110.6,13.28,17.12,267.0
"2009-03-17 00:19:30",717498,12.56,306,1.055,0.346,15.06,106.6529,16.31,17.28,10.48,0,110.6,13.28,17.11,268.0
"2009-03-17 00:20:00",717499,12.32,303.9,1.445,0.318,15.09,106.65,16.3,17.29,10.52,0,110.6,13.27,17.11,265.9
"2009-03-17 00:20:30",717500,12.48,305.9,1.356,0.206,15.11,106.645,16.29,17.29,10.5,0,110.6,13.27,17.09,267.9
"2009-03-17 00:21:00",717501,12.48,305.2,0.98,0.245,15.06,106.6416,16.28,17.29,10.53,0,110.6,13.27,17.09,267.2
"2009-03-17 00:21:30",717502,12.34,305.4,0.768,0.249,15.15,106.6394,16.27,17.29,10.56,0,110.6,13.27,17.08,267.4
"2009-03-17 00:22:00",717503,13.13,306.1,1.099,0.172,15.12,106.6343,16.26,17.31,10.54,0,110.6,13.27,17.07,268.1
"2009-03-17 00:22:30",717504,12.62,302.8,1.652,0.266,15.21,106.6272,16.24,17.28,10.51,0,110.6,13.27,17.05,264.8
"2009-03-17 00:23:00",717505,12.74,305,1.054,0.172,15.19,106.6219,16.23,17.28,10.51,0,110.6,13.27,17.03,267.0
"2009-03-17 00:23:30",717506,11.87,305.8,1.485,0.358,15.21,106.6216,16.23,17.29,10.5,0,110.6,13.27,17.03,267.8
"2009-03-17 00:24:00",717507,12.47,306.8,1.13,0.15,15.21,106.6216,16.23,17.28,10.51,0,110.6,13.27,17.03,268.8
"2009-03-17 00:24:30",717508,12.08,306,1.136,0.392,15.21,106.6216,16.23,17.28,10.52,0,110.6,13.27,17.03,268.0
"2009-03-17 00:25:00",717509,11.67,305.1,2.174,0.331,15.24,106.6216,16.23,17.28,10.51,0,110.6,13.27,17.03,267.1
"2009-03-17 00:25:30",717510,12.07,306.9,1.371,0.354,15.19,106.6216,16.23,17.27,10.5,0,110.6,13.27,17.03,268.9
"2009-03-17 00:26:00",717511,12.44,306.8,1.545,0.102,15.14,106.6216,16.23,17.28,10.52,0,110.6,13.27,17.03,268.8
"2009-03-17 00:26:30",717512,12.26,307.5,1.528,0.272,15.07,106.6216,16.23,17.27,10.54,0,110.6,13.28,17.03,269.5
"2009-03-17 00:27:00",717513,12.59,310.1,1.787,0.515,15.07,106.6216,16.23,17.26,10.56,0,110.6,13.28,17.03,272.1
"2009-03-17 00:27:30",717514,12.4,307.7,1.708,0.128,15.17,106.6216,16.23,17.26,10.58,0,110.6,13.28,17.03,269.7
"2009-03-17 00:28:00",717515,12.82,307.2,1.486,0.204,15.16,106.6216,16.23,17.27,10.58,0,110.6,13.28,17.03,269.2
"2009-03-17 00:28:30",717516,12.76,306.4,1.605,0.205,15.19,106.6216,16.23,17.25,10.6,0,110.6,13.28,17.03,268.4
"2009-03-17 00:29:00",717517,12.76,307,1.625,0.164,15.24,106.6216,16.23,17.26,10.57,0,110.6,13.28,17.03,269.0
"2009-03-17 00:29:30",717518,12.63,307,1.663,0.116,15.19,106.6216,16.23,17.25,10.59,0,110.6,13.28,17.03,269.0
"2009-03-17 00:30:00",717519,13.03,304.4,1.73,0.145,15.15,106.6194,16.22,17.24,10.59,0,110.6,13.28,17.03,266.4
"2009-03-17 00:30:30",717520,13.31,306.4,1.707,0.201,15.21,106.6149,16.21,17.23,10.58,0,110.6,13.28,17.02,268.4
"2009-03-17 00:31:00",717521,13.15,302.3,2.591,0.309,15.22,106.6104,16.2,17.23,10.55,0,110.6,13.28,17.01,264.3
"2009-03-17 00:31:30",717522,13.26,305.8,1.437,0.326,15.07,106.6033,16.18,17.23,10.57,0,110.6,13.28,16.99,267.8
"2009-03-17 00:32:00",717523,13.96,307.5,1.605,0.255,15.09,106.591,16.15,17.22,10.57,0,110.6,13.28,16.96,269.5
"2009-03-17 00:32:30",717524,13.8,309.4,1.01,0.174,15.11,106.5896,16.14,17.21,10.57,0,110.6,13.28,16.95,271.4
"2009-03-17 00:33:00",717525,13.5,307.6,0.947,0.201,15.14,106.5905,16.15,17.21,10.58,0,110.6,13.28,16.95,269.6
"2009-03-17 00:33:30",717526,13.74,307.6,1.413,0.463,15.14,106.5905,16.15,17.19,10.59,0,110.6,13.28,16.95,269.6
"2009-03-17 00:34:00",717527,13.27,306.2,4.161,1.091,15.45,106.5914,16.15,17.18,10.53,0,110.6,13.28,16.96,268.2
"2009-03-17 00:34:30",717528,13.65,304.3,1.567,0.232,15.12,106.5912,16.15,17.17,10.51,0,110.6,13.28,16.96,266.3
"2009-03-17 00:35:00",717529,13.46,303.2,0.909,0.229,15.2,106.583,16.13,17.16,10.67,0,110.6,13.28,16.93,265.2
"2009-03-17 00:35:30",717530,12.96,302.9,1.079,0.212,15.17,106.5706,16.09,17.16,10.68,0,110.6,13.28,16.90,264.9
"2009-03-17 00:36:00",717531,12.85,300.1,1.837,0.48,15.27,106.5633,16.08,17.15,10.67,0,110.6,13.28,16.88,262.1
"2009-03-17 00:36:30",717532,12.7,298.6,1.548,0.512,15.28,106.5631,16.08,17.14,10.63,0,110.6,13.28,16.88,260.6
"2009-03-17 00:37:00",717533,12.85,301.3,1.291,0.24,15.23,106.5648,16.08,17.12,10.62,0,110.6,13.28,16.89,263.3
"2009-03-17 00:37:30",717534,12.88,302.8,2.393,0.373,15.25,106.5648,16.08,17.12,10.63,0,110.6,13.28,16.89,264.8
"2009-03-17 00:38:00",717535,13.11,300.9,1.079,0.45,15.24,106.5664,16.08,17.11,10.64,0,110.6,13.28,16.89,262.9
"2009-03-17 00:38:30",717536,13.31,301.4,1.38,0.39,15.22,106.5647,16.08,17.11,10.68,0,110.6,13.28,16.89,263.4
"2009-03-17 00:39:00",717537,12.56,299.5,2.412,0.298,15.25,106.5573,16.06,17.09,10.71,0,110.6,13.28,16.87,261.5
"2009-03-17 00:39:30",717538,12.84,301.4,2.503,0.219,15.27,106.5517,16.05,17.08,10.73,0,110.6,13.28,16.85,263.4
"2009-03-17 00:40:00",717539,12.99,305,1.85,0.237,15.28,106.5424,16.02,17.07,10.73,0,110.6,13.28,16.83,267.0
"2009-03-17 00:40:30",717540,12.51,304.8,1.571,0.313,15.24,106.5428,16.02,17.06,10.74,0,110.6,13.28,16.83,266.8
"2009-03-17 00:41:00",717541,11.9,304.7,1.123,0.149,15.28,106.5473,16.03,17.06,10.78,0,110.6,13.28,16.84,266.7
"2009-03-17 00:41:30",717542,11.91,304.1,1.395,0.233,15.27,106.5497,16.04,17.04,10.83,0,110.6,13.28,16.85,266.1
"2009-03-17 00:42:00",717543,12.44,302.8,1.639,0.27,15.32,106.5524,16.05,17.03,10.8,0,110.6,13.28,16.86,264.8
"2009-03-17 00:42:30",717544,11.89,300.8,2.02,0.481,15.4,106.5493,16.04,17.03,10.77,0,110.6,13.28,16.85,262.8
"2009-03-17 00:43:00",717545,11.72,301.3,0.959,0.227,15.37,106.5438,16.03,17.02,10.76,0,110.6,13.28,16.83,263.3
"2009-03-17 00:43:30",717546,11.55,301.4,1.844,0.349,15.34,106.5317,16,17.01,10.75,0,110.5,13.28,16.80,263.4
"2009-03-17 00:44:00",717547,11.92,301.4,1.123,0.284,15.25,106.5228,15.97,17.02,10.81,0,110.6,13.28,16.78,263.4
"2009-03-17 00:44:30",717548,11.57,300.3,1.373,0.462,15.36,106.5225,15.97,17,10.84,0,110.6,13.29,16.78,262.3
"2009-03-17 00:45:00",717549,11.82,301.3,2.21,0.232,15.36,106.5225,15.97,16.97,10.83,0,110.5,13.29,16.78,263.3
"2009-03-17 00:45:30",717550,11.97,301,1.668,0.223,15.31,106.5225,15.97,16.99,10.87,0,110.5,13.29,16.78,263.0
"2009-03-17 00:46:00",717551,12.4,302.1,1.248,0.265,15.22,106.5225,15.97,16.96,10.94,0,110.6,13.29,16.78,264.1
"2009-03-17 00:46:30",717552,12.39,303.2,1.863,0.19,15.23,106.5225,15.97,16.95,10.95,0,110.5,13.29,16.78,265.2
"2009-03-17 00:47:00",717553,12.33,302,0.871,0.209,15.25,106.5213,15.97,16.95,10.98,0,110.5,13.29,16.78,264.0
"2009-03-17 00:47:30",717554,12.24,302.6,2.101,0.189,15.32,106.514,15.95,16.95,11,0,110.5,13.29,16.76,264.6
"2009-03-17 00:48:00",717555,11.6,300.2,1.235,0.256,15.41,106.5005,15.92,16.94,10.97,0,110.5,13.29,16.72,262.2
"2009-03-17 00:48:30",717556,11.04,299.9,1.371,0.369,15.39,106.4892,15.89,16.92,10.98,0,110.5,13.29,16.69,261.9
"2009-03-17 00:49:00",717557,11.65,301.6,1.823,0.171,15.26,106.4887,15.88,16.92,10.97,0,110.5,13.29,16.69,263.6
"2009-03-17 00:49:30",717558,11.93,301.9,1.39,0.229,15.31,106.4887,15.88,16.91,11.05,0,110.5,13.29,16.69,263.9
"2009-03-17 00:50:00",717559,12.4,302.2,0.949,0.173,15.29,106.4887,15.88,16.91,11.08,0,110.5,13.29,16.69,264.2
"2009-03-17 00:50:30",717560,12.49,301.3,1.154,0.104,15.32,106.4887,15.88,16.88,11.1,0,110.5,13.29,16.69,263.3
"2009-03-17 00:51:00",717561,12.03,296.7,0.972,0.247,15.46,106.4833,15.87,16.88,11.07,0,110.5,13.29,16.68,258.7
"2009-03-17 00:51:30",717562,12.12,299,1.019,0.395,15.37,106.4777,15.86,16.88,11.06,0,110.5,13.29,16.66,261.0
"2009-03-17 00:52:00",717563,12.06,300.7,1.788,0.198,15.24,106.4613,15.81,16.85,11.1,0,110.5,13.29,16.62,262.7
"2009-03-17 00:52:30",717564,11.89,297.1,1.118,0.244,15.43,106.4549,15.8,16.84,11.11,0,110.5,13.29,16.61,259.1
"2009-03-17 00:53:00",717565,12.1,298,0.917,0.282,15.38,106.4549,15.8,16.86,11.12,0,110.5,13.29,16.61,260.0
"2009-03-17 00:53:30",717566,12.2,298.8,1.289,0.259,15.42,106.4549,15.8,16.83,11.12,0,110.5,13.29,16.61,260.8
"2009-03-17 00:54:00",717567,12.57,300.9,1.123,0.196,15.36,106.4549,15.8,16.82,11.11,0,110.5,13.29,16.61,262.9
"2009-03-17 00:54:30",717568,12.49,299.6,1.453,0.287,15.46,106.4507,15.79,16.8,11.09,0,110.5,13.29,16.59,261.6
"2009-03-17 00:55:00",717569,12.84,299.7,2.919,0.374,15.46,106.4447,15.77,16.79,11.1,0,110.5,13.29,16.58,261.7
"2009-03-17 00:55:30",717570,12.67,301.1,1.15,0.324,15.44,106.4281,15.73,16.78,11.11,0,110.5,13.28,16.54,263.1
"2009-03-17 00:56:00",717571,12.13,299.8,2.193,0.202,15.53,106.4216,15.71,16.79,11.13,0,110.5,13.28,16.52,261.8
"2009-03-17 00:56:30",717572,12.28,298.6,2.187,0.281,15.52,106.4211,15.71,16.77,11.14,0,110.5,13.28,16.52,260.6
"2009-03-17 00:57:00",717573,12.41,299.1,2.11,0.393,15.54,106.4211,15.71,16.75,11.13,0,110.5,13.29,16.52,261.1
"2009-03-17 00:57:30",717574,12.61,298.6,1.033,0.163,15.58,106.4211,15.71,16.74,11.16,0,110.5,13.29,16.52,260.6
"2009-03-17 00:58:00",717575,12.9,299.7,1.336,0.281,15.54,106.42,15.71,16.74,11.15,0,110.5,13.29,16.52,261.7
"2009-03-17 00:58:30",717576,13.12,299.5,0.944,0.193,15.55,106.4095,15.68,16.73,11.18,0,110.5,13.29,16.49,261.5
"2009-03-17 00:59:00",717577,12.51,298.1,0.809,0.229,15.62,106.3918,15.64,16.71,11.19,0,110.5,13.29,16.44,260.1
"2009-03-17 00:59:30",717578,12.93,299.2,1.467,0.215,15.48,106.3876,15.63,16.7,11.2,0,110.5,13.3,16.43,261.2
"2009-03-17 01:00:00",717579,13.55,299.6,1.72,0.287,15.47,106.3879,15.63,16.69,11.24,0,110.5,13.3,16.43,261.6
"2009-03-17 01:00:30",717580,13.73,300.7,0.887,0.428,15.54,106.3882,15.63,16.68,11.28,0,110.5,13.3,16.43,262.7
"2009-03-17 01:01:00",717581,13.56,296.5,2.032,0.261,15.75,106.3903,15.63,16.67,11.16,0,110.5,13.3,16.44,258.5
"2009-03-17 01:01:30",717582,13.09,296.4,3.38,0.34,15.7,106.3919,15.64,16.65,11.18,0,110.5,13.3,16.44,258.4
"2009-03-17 01:02:00",717583,12.62,293.7,1.213,0.47,15.75,106.3869,15.62,16.67,11.03,0,110.5,13.3,16.43,255.7
"2009-03-17 01:02:30",717584,12.65,297.1,1.865,0.438,15.57,106.388,15.63,16.63,11.14,0,110.5,13.3,16.43,259.1
"2009-03-17 01:03:00",717585,13.2,300.4,1.289,0.276,15.49,106.387,15.62,16.63,11.25,0,110.5,13.3,16.43,262.4
"2009-03-17 01:03:30",717586,12.65,299,1.362,0.283,15.56,106.3764,15.6,16.63,11.31,0,110.5,13.3,16.40,261.0
"2009-03-17 01:04:00",717587,12.46,297.8,1.696,0.197,15.61,106.372,15.59,16.61,11.29,0,110.5,13.3,16.39,259.8
"2009-03-17 01:04:30",717588,12.83,299.4,1.363,0.278,15.57,106.3796,15.61,16.61,11.29,0,110.5,13.3,16.41,261.4
"2009-03-17 01:05:00",717589,13.09,299.1,0.768,0.241,15.58,106.3829,15.61,16.58,11.32,0,110.5,13.3,16.42,261.1
"2009-03-17 01:05:30",717590,13.01,300.2,0.932,0.189,15.6,106.3861,15.62,16.59,11.32,0,110.5,13.31,16.43,262.2
"2009-03-17 01:06:00",717591,12.55,301.4,1.29,0.342,15.54,106.3876,15.63,16.6,11.34,0,110.5,13.31,16.43,263.4
"2009-03-17 01:06:30",717592,12.74,298.8,1.561,0.22,15.55,106.3894,15.63,16.58,11.31,0,110.5,13.31,16.44,260.8
"2009-03-17 01:07:00",717593,12.73,296.5,1.602,0.233,15.65,106.3849,15.62,16.58,11.25,0,110.5,13.31,16.43,258.5
"2009-03-17 01:07:30",717594,12.99,294.7,1.74,0.293,15.65,106.3799,15.61,16.58,11.25,0,110.5,13.31,16.41,256.7
"2009-03-17 01:08:00",717595,13.22,293.6,1.554,0.36,15.76,106.3717,15.59,16.57,11.21,0,110.5,13.31,16.39,255.6
"2009-03-17 01:08:30",717596,13.44,291,1.733,0.48,15.82,106.3618,15.56,16.57,11.04,0,110.5,13.31,16.37,253.0
"2009-03-17 01:09:00",717597,12.62,295.5,1.564,0.314,15.62,106.3593,15.55,16.55,11.14,0,110.5,13.31,16.36,257.5
"2009-03-17 01:09:30",717598,12.49,297.4,1.007,0.256,15.6,106.3556,15.54,16.55,11.27,0,110.5,13.31,16.35,259.4
"2009-03-17 01:10:00",717599,13.19,296.7,1.094,0.141,15.59,106.3556,15.54,16.54,11.29,0,110.5,13.31,16.35,258.7
"2009-03-17 01:10:30",717600,12.98,295.9,1.223,0.258,15.64,106.3556,15.54,16.54,11.28,0,110.5,13.31,16.35,257.9
"2009-03-17 01:11:00",717601,13.26,294.7,1.396,0.468,15.69,106.3556,15.54,16.54,11.13,0,110.5,13.31,16.35,256.7
"2009-03-17 01:11:30",717602,13.33,293.4,1.077,0.133,15.73,106.3556,15.54,16.55,10.93,0,110.5,13.31,16.35,255.4
"2009-03-17 01:12:00",717603,13.36,292.1,0.501,0.188,15.8,106.3556,15.54,16.53,10.85,0,110.4,13.3,16.35,254.1
"2009-03-17 01:12:30",717604,12.92,292.2,0.815,0.137,15.8,106.3556,15.54,16.55,10.77,0,110.4,13.31,16.35,254.2
"2009-03-17 01:13:00",717605,12.66,292,1.681,0.308,15.75,106.3556,15.54,16.54,10.79,0,110.5,13.31,16.35,254.0
"2009-03-17 01:13:30",717606,13.08,297.1,1.291,0.164,15.65,106.3556,15.54,16.54,10.91,0,110.4,13.31,16.35,259.1
"2009-03-17 01:14:00",717607,13.67,295.7,1.396,0.439,15.64,106.3556,15.54,16.53,11,0,110.4,13.31,16.35,257.7
"2009-03-17 01:14:30",717608,13.3,298.5,1.195,0.478,15.53,106.3556,15.54,16.54,11.11,0,110.4,13.31,16.35,260.5
"2009-03-17 01:15:00",717609,13.74,298.8,2.823,0.488,15.68,106.3556,15.54,16.55,11.14,0,110.4,13.31,16.35,260.8
"2009-03-17 01:15:30",717610,13.75,295,1.561,0.305,15.77,106.3556,15.54,16.55,10.98,0,110.4,13.31,16.35,257.0
"2009-03-17 01:16:00",717611,13.64,292.7,1.776,0.414,15.86,106.3556,15.54,16.55,10.89,0,110.4,13.31,16.35,254.7
"2009-03-17 01:16:30",717612,12.79,293.8,1.318,0.486,15.86,106.3556,15.54,16.55,10.82,0,110.4,13.31,16.35,255.8
"2009-03-17 01:17:00",717613,13.35,294.1,1.832,0.733,15.67,106.3556,15.54,16.56,10.89,0,110.5,13.31,16.35,256.1
"2009-03-17 01:17:30",717614,13.17,293.6,1.705,0.543,15.81,106.3562,15.55,16.57,10.89,0,110.4,13.32,16.35,255.6
"2009-03-17 01:18:00",717615,12.91,296.5,0.864,0.392,15.78,106.3573,15.55,16.56,10.83,0,110.5,13.32,16.35,258.5
"2009-03-17 01:18:30",717616,13.84,297.6,1.845,0.19,15.69,106.3593,15.55,16.57,10.85,0,110.4,13.32,16.36,259.6
"2009-03-17 01:19:00",717617,13.39,299.1,2.454,0.172,15.58,106.3633,15.56,16.57,10.98,0,110.4,13.32,16.37,261.1
"2009-03-17 01:19:30",717618,13.95,298.2,0.882,0.19,15.72,106.3652,15.57,16.57,10.97,0,110.4,13.32,16.37,260.2
"2009-03-17 01:20:00",717619,13.79,297.8,1.437,0.305,15.71,106.3667,15.57,16.57,10.87,0,110.4,13.32,16.38,259.8
"2009-03-17 01:20:30",717620,13.24,297.4,1.75,0.294,15.65,106.3655,15.57,16.57,10.87,0,110.4,13.32,16.38,259.4
"2009-03-17 01:21:00",717621,12.83,296.4,2.547,0.509,15.82,106.3633,15.56,16.59,10.8,0,110.4,13.32,16.37,258.4
"2009-03-17 01:21:30",717622,13.34,298.3,1.084,0.342,15.76,106.3642,15.57,16.58,10.73,0,110.4,13.32,16.37,260.3
"2009-03-17 01:22:00",717623,13.36,298.1,2.539,0.237,15.78,106.3686,15.58,16.58,10.64,0,110.4,13.32,16.38,260.1
"2009-03-17 01:22:30",717624,13.97,294.5,1.649,0.486,15.84,106.3744,15.59,16.58,10.41,0,110.4,13.32,16.40,256.5
"2009-03-17 01:23:00",717625,13.89,294.3,1.108,0.19,15.77,106.3814,15.61,16.57,10.35,0,110.4,13.32,16.42,256.3
"2009-03-17 01:23:30",717626,14,293.7,1.345,0.342,15.84,106.3896,15.63,16.59,10.34,0,110.4,13.32,16.44,255.7
"2009-03-17 01:24:00",717627,12.95,295.7,1.208,0.173,15.68,106.3945,15.64,16.58,10.29,0,110.4,13.32,16.45,257.7
"2009-03-17 01:24:30",717628,12.97,295.9,1.248,0.394,15.69,106.3998,15.66,16.6,10.36,0,110.4,13.32,16.46,257.9
"2009-03-17 01:25:00",717629,12.83,295.4,1.606,0.435,15.68,106.4055,15.67,16.59,10.46,0,110.4,13.33,16.48,257.4
"2009-03-17 01:25:30",717630,12.5,296.4,0.885,0.206,15.76,106.4087,15.68,16.61,10.37,0,110.4,13.33,16.49,258.4
"2009-03-17 01:26:00",717631,12.47,295.4,0.801,0.094,15.75,106.4143,15.69,16.61,10.43,0,110.4,13.33,16.50,257.4
"2009-03-17 01:26:30",717632,12.13,295.4,1.268,0.225,15.66,106.4149,15.7,16.61,10.62,0,110.4,13.33,16.50,257.4
"2009-03-17 01:27:00",717633,12.02,298.4,1.667,0.423,15.6,106.4198,15.71,16.62,10.73,0,110.4,13.33,16.52,260.4
"2009-03-17 01:27:30",717634,12.04,294.5,1.841,0.507,15.62,106.4192,15.71,16.63,10.84,0,110.4,13.32,16.51,256.5
"2009-03-17 01:28:00",717635,11.17,298.7,3.706,0.63,15.57,106.4204,15.71,16.62,10.9,0,110.4,13.32,16.52,260.7
"2009-03-17 01:28:30",717636,11.72,300.3,1.934,0.553,15.56,106.4186,15.71,16.62,10.92,0,110.4,13.32,16.51,262.3
"2009-03-17 01:29:00",717637,11.22,299,1.732,0.216,15.62,106.4062,15.67,16.63,10.91,0,110.4,13.32,16.48,261.0
"2009-03-17 01:29:30",717638,11.5,299.4,1.303,0.369,15.57,106.3933,15.64,16.61,11,0,110.4,13.32,16.45,261.4
"2009-03-17 01:30:00",717639,11.61,299.9,1.57,0.221,15.55,106.3913,15.64,16.61,11.07,0,110.4,13.32,16.44,261.9
"2009-03-17 01:30:30",717640,12.18,298.1,1.485,0.204,15.64,106.3916,15.64,16.6,11.05,0,110.4,13.32,16.44,260.1
"2009-03-17 01:31:00",717641,11.55,299.5,3.96,0.438,15.59,106.3916,15.64,16.59,11.03,0,110.4,13.32,16.44,261.5
"2009-03-17 01:31:30",717642,11.21,300.9,2.21,0.411,15.56,106.3916,15.64,16.61,11.07,0,110.4,13.32,16.44,262.9
"2009-03-17 01:32:00",717643,11.52,301.7,1.984,0.256,15.59,106.3877,15.63,16.59,11.03,0,110.4,13.32,16.43,263.7
"2009-03-17 01:32:30",717644,11.58,302.6,3.804,0.274,15.6,106.3713,15.58,16.58,11.03,0,110.4,13.32,16.39,264.6
"2009-03-17 01:33:00",717645,10.64,294.8,2.014,0.29,15.8,106.3578,15.55,16.55,10.78,0,110.4,13.33,16.36,256.8
"2009-03-17 01:33:30",717646,10.09,297.6,2.104,0.18,15.78,106.3578,15.55,16.54,10.62,0,110.4,13.33,16.36,259.6
"2009-03-17 01:34:00",717647,10.02,304.1,2.297,0.408,15.5,106.3578,15.55,16.55,10.84,0,110.4,13.33,16.36,266.1
"2009-03-17 01:34:30",717648,10.3,303.1,2.486,0.284,15.56,106.3578,15.55,16.53,11.07,0,110.4,13.33,16.36,265.1
"2009-03-17 01:35:00",717649,10.64,304,0.959,0.221,15.46,106.3578,15.55,16.52,11.14,0,110.4,13.33,16.36,266.0
"2009-03-17 01:35:30",717650,10.37,302.9,1.444,0.313,15.5,106.3572,15.55,16.51,11.2,0,110.4,13.33,16.35,264.9
"2009-03-17 01:36:00",717651,10.17,299.8,0.969,0.273,15.61,106.346,15.52,16.53,11.22,0,110.4,13.33,16.33,261.8
"2009-03-17 01:36:30",717652,9.96,302.3,1.788,0.201,15.58,106.3282,15.47,16.51,11.23,0,110.4,13.33,16.28,264.3
"2009-03-17 01:37:00",717653,11.16,305.5,2.31,0.451,15.39,106.324,15.46,16.5,11.23,0,110.4,13.33,16.27,267.5
"2009-03-17 01:37:30",717654,11.03,304,0.92,0.217,15.47,106.324,15.46,16.49,11.24,0,110.4,13.33,16.27,266.0
"2009-03-17 01:38:00",717655,10.6,304.4,1.779,0.2,15.54,106.324,15.46,16.48,11.26,0,110.4,13.33,16.27,266.4
"2009-03-17 01:38:30",717656,9.9,304.3,1.462,0.246,15.53,106.3234,15.46,16.46,11.24,0,110.4,13.33,16.27,266.3
"2009-03-17 01:39:00",717657,9.73,302.5,1.551,0.299,15.55,106.3147,15.44,16.45,11.23,0,110.4,13.33,16.24,264.5
"2009-03-17 01:39:30",717658,9.72,307.2,1.676,0.21,15.51,106.2938,15.39,16.45,11.25,0,110.4,13.33,16.19,269.2
"2009-03-17 01:40:00",717659,10.22,304.4,1.873,0.557,15.44,106.2902,15.38,16.43,11.27,0,110.4,13.33,16.18,266.4
"2009-03-17 01:40:30",717660,10.6,299,2.305,0.328,15.65,106.2902,15.38,16.43,11.24,0,110.4,13.33,16.18,261.0
"2009-03-17 01:41:00",717661,10.41,303.4,2.632,0.252,15.52,106.2902,15.38,16.41,11.17,0,110.4,13.33,16.18,265.4
"2009-03-17 01:41:30",717662,9.88,305.4,2.749,0.356,15.53,106.289,15.37,16.39,11.26,0,110.4,13.33,16.18,267.4
"2009-03-17 01:42:00",717663,9.81,304.2,1.874,0.284,15.69,106.284,15.36,16.38,11.12,0,110.4,13.33,16.17,266.2
"2009-03-17 01:42:30",717664,9.6,304.6,0.947,0.317,15.57,106.2769,15.34,16.38,11.05,0,110.4,13.34,16.15,266.6
"2009-03-17 01:43:00",717665,10.34,307.2,1.691,0.336,15.43,106.2614,15.3,16.37,11.18,0,110.4,13.34,16.11,269.2
"2009-03-17 01:43:30",717666,10.54,307.4,1.082,0.271,15.43,106.2563,15.29,16.35,11.31,0,110.4,13.34,16.09,269.4
"2009-03-17 01:44:00",717667,10.4,306.4,1.361,0.205,15.42,106.2563,15.29,16.35,11.35,0,110.4,13.33,16.09,268.4
"2009-03-17 01:44:30",717668,9.88,305.3,1.118,0.198,15.48,106.2563,15.29,16.34,11.38,0,110.4,13.33,16.09,267.3
"2009-03-17 01:45:00",717669,9.53,304.2,1.526,0.246,15.53,106.2563,15.29,16.34,11.38,0,110.4,13.33,16.09,266.2
"2009-03-17 01:45:30",717670,9.6,303.8,1.76,0.3,15.57,106.2563,15.29,16.31,11.33,0,110.4,13.33,16.09,265.8
"2009-03-17 01:46:00",717671,9.71,303.1,2.891,0.3,15.52,106.2558,15.29,16.31,11.36,0,110.4,13.33,16.09,265.1
"2009-03-17 01:46:30",717672,9.4,299.8,1.597,0.238,15.59,106.2451,15.26,16.33,11.33,0,110.4,13.33,16.07,261.8
"2009-03-17 01:47:00",717673,9.16,301,1.39,0.185,15.65,106.2318,15.23,16.3,11.3,0,110.4,13.33,16.03,263.0
"2009-03-17 01:47:30",717674,9.16,302.5,1.509,0.392,15.51,106.2283,15.22,16.28,11.33,0,110.4,13.33,16.02,264.5
"2009-03-17 01:48:00",717675,9.71,302.9,1.657,0.282,15.51,106.224,15.21,16.29,11.38,0,110.4,13.33,16.01,264.9